TimeCDT,TemperatureF,Dew PointF,Humidity,Sea Level PressureIn,VisibilityMPH,Wind Direction,Wind SpeedMPH,Gust SpeedMPH,PrecipitationIn,Events,Conditions,WindDirDegrees,DateUTC
12:58 AM,36.9,30.9,79,30.07,10.0,NNE,12.7,-,N/A,,Mostly Cloudy,30,2013-03-17 05:58:00
1:58 AM,36.0,29.8,78,30.06,10.0,NE,17.3,-,N/A,,Overcast,40,2013-03-17 06:58:00
2:58 AM,35.4,29.7,80,30.07,10.0,NE,15.0,-,N/A,,Overcast,40,2013-03-17 07:58:00
3:24 AM,35.6,30.2,81,30.04,10.0,NE,12.7,-,N/A,Rain,Light Rain,40,2013-03-17 08:24:00
3:47 AM,33.8,30.2,87,30.03,10.0,NE,13.8,-,N/A,,Overcast,40,2013-03-17 08:47:00
3:58 AM,34.5,29.7,82,30.06,10.0,NE,13.8,-,0.00,,Overcast,40,2013-03-17 08:58:00
4:43 AM,33.8,30.2,87,30.02,10.0,NE,15.0,23.0,N/A,,Overcast,40,2013-03-17 09:43:00
4:58 AM,34.2,29.8,84,30.05,10.0,NE,17.3,-,N/A,,Overcast,50,2013-03-17 09:58:00
5:14 AM,33.8,28.4,81,30.01,10.0,NE,17.3,21.9,N/A,,Light Drizzle,50,2013-03-17 10:14:00
5:29 AM,32.0,30.2,93,30.01,10.0,NE,15.0,-,N/A,,Light Drizzle,50,2013-03-17 10:29:00
5:38 AM,32.0,30.2,93,30.02,10.0,NE,13.8,-,N/A,,Overcast,50,2013-03-17 10:38:00
5:58 AM,33.3,29.3,85,30.06,10.0,ENE,13.8,-,0.00,,Overcast,60,2013-03-17 10:58:00
6:15 AM,32.0,28.4,87,30.03,10.0,ENE,11.5,-,N/A,,Overcast,60,2013-03-17 11:15:00
6:29 AM,32.0,30.2,93,30.02,10.0,ENE,11.5,-,N/A,,Overcast,70,2013-03-17 11:29:00
6:58 AM,33.3,29.8,87,30.05,10.0,East,11.5,-,0.00,,Overcast,80,2013-03-17 11:58:00
7:48 AM,32.0,32.0,100,30.02,10.0,ENE,10.4,-,N/A,,Overcast,70,2013-03-17 12:48:00
7:58 AM,33.4,30.6,89,30.05,10.0,ENE,10.4,-,N/A,,Overcast,60,2013-03-17 12:58:00
8:58 AM,33.6,31.3,91,30.05,10.0,ENE,12.7,-,N/A,,Overcast,60,2013-03-17 13:58:00
9:58 AM,34.0,32.4,94,30.03,10.0,ENE,11.5,-,N/A,,Overcast,60,2013-03-17 14:58:00
10:58 AM,35.1,33.1,92,30.04,10.0,NE,12.7,-,N/A,,Overcast,50,2013-03-17 15:58:00
11:58 AM,36.3,33.6,90,30.00,10.0,East,11.5,-,N/A,,Overcast,80,2013-03-17 16:58:00
12:16 PM,35.6,32.0,87,29.97,10.0,ENE,10.4,-,N/A,,Overcast,70,2013-03-17 17:16:00
12:36 PM,35.6,35.6,100,29.98,10.0,ENE,9.2,-,N/A,Rain,Light Rain,60,2013-03-17 17:36:00
12:58 PM,36.0,35.4,98,29.98,7.0,ENE,9.2,-,0.01,Rain,Light Rain,60,2013-03-17 17:58:00
1:33 PM,35.6,35.6,100,29.94,10.0,ENE,12.7,-,N/A,Rain,Light Rain,70,2013-03-17 18:33:00
1:43 PM,35.6,35.6,100,29.94,7.0,ENE,10.4,-,N/A,Rain,Light Rain,70,2013-03-17 18:43:00
1:48 PM,35.6,35.6,100,29.93,6.0,ENE,10.4,-,N/A,Rain,Light Rain,70,2013-03-17 18:48:00
1:53 PM,35.6,35.6,100,29.92,5.0,ENE,10.4,-,N/A,Rain,Light Rain,70,2013-03-17 18:53:00
1:58 PM,35.1,34.7,99,29.95,4.0,East,11.5,-,0.03,Rain,Light Rain,80,2013-03-17 18:58:00
2:08 PM,35.6,35.6,100,29.91,5.0,ENE,11.5,-,N/A,Rain,Light Rain,70,2013-03-17 19:08:00
2:23 PM,33.8,33.8,100,29.90,6.0,East,15.0,-,N/A,Rain,Light Rain,80,2013-03-17 19:23:00
2:28 PM,33.8,33.8,100,29.90,6.0,East,11.5,-,N/A,Rain,Light Rain,80,2013-03-17 19:28:00
2:43 PM,33.8,33.8,100,29.88,6.0,ENE,10.4,-,N/A,Rain,Rain,70,2013-03-17 19:43:00
2:48 PM,33.8,33.8,100,29.88,4.0,ENE,12.7,-,N/A,Rain,Light Rain,70,2013-03-17 19:48:00
2:58 PM,34.2,34.0,99,29.91,5.0,ENE,10.4,-,0.05,Rain,Light Rain,60,2013-03-17 19:58:00
3:03 PM,33.8,33.8,100,29.88,7.0,ENE,10.4,-,N/A,Rain,Light Rain,60,2013-03-17 20:03:00
3:08 PM,33.8,33.8,100,29.88,9.0,ENE,12.7,-,N/A,Rain,Light Rain,60,2013-03-17 20:08:00
3:18 PM,33.8,33.8,100,29.87,10.0,ENE,10.4,-,N/A,,Light Drizzle,70,2013-03-17 20:18:00
3:21 PM,33.8,33.8,100,29.86,10.0,ENE,10.4,-,N/A,,Overcast,70,2013-03-17 20:21:00
3:29 PM,33.8,33.8,100,29.86,10.0,ENE,10.4,-,N/A,Rain,Light Rain,60,2013-03-17 20:29:00
3:58 PM,34.0,33.8,99,29.88,10.0,ENE,13.8,-,0.00,Rain,Light Rain,70,2013-03-17 20:58:00
4:23 PM,33.8,33.8,100,29.83,10.0,ENE,12.7,-,N/A,Rain,Light Rain,60,2013-03-17 21:23:00
4:33 PM,33.8,33.8,100,29.83,10.0,ENE,11.5,-,N/A,,Light Drizzle,60,2013-03-17 21:33:00
4:35 PM,33.8,33.8,100,29.83,10.0,ENE,9.2,-,N/A,,Overcast,70,2013-03-17 21:35:00
4:41 PM,33.8,33.8,100,29.84,10.0,ENE,9.2,-,N/A,,Light Drizzle,70,2013-03-17 21:41:00
4:55 PM,33.8,33.8,100,29.82,10.0,ENE,12.7,-,N/A,,Overcast,70,2013-03-17 21:55:00
4:56 PM,33.8,33.8,100,29.82,10.0,ENE,12.7,-,N/A,,Overcast,70,2013-03-17 21:56:00
5:07 PM,33.8,33.8,100,29.80,10.0,NE,15.0,21.9,N/A,,Light Drizzle,50,2013-03-17 22:07:00
5:56 PM,33.8,33.8,100,29.78,10.0,ENE,15.0,-,N/A,,Overcast,70,2013-03-17 22:56:00
5:58 PM,34.5,34.2,99,29.81,10.0,ENE,15.0,-,0.01,,Overcast,70,2013-03-17 22:58:00
6:58 PM,34.7,34.7,100,29.84,10.0,ENE,10.4,-,N/A,,Overcast,60,2013-03-17 23:58:00
7:27 PM,33.8,33.8,100,29.80,10.0,ENE,11.5,-,N/A,,Light Drizzle,60,2013-03-18 00:27:00
7:37 PM,33.8,33.8,100,29.80,10.0,ENE,10.4,-,N/A,Rain,Light Rain,60,2013-03-18 00:37:00
7:42 PM,33.8,33.8,100,29.80,8.0,ENE,12.7,18.4,N/A,Rain,Light Rain,70,2013-03-18 00:42:00
7:52 PM,33.8,33.8,100,29.80,5.0,ENE,12.7,-,N/A,Rain,Light Rain,70,2013-03-18 00:52:00
7:58 PM,34.3,34.3,100,29.82,5.0,ENE,13.8,-,0.01,Rain,Light Rain,70,2013-03-18 00:58:00
8:08 PM,33.8,33.8,100,29.80,6.0,ENE,6.9,19.6,N/A,,Light Drizzle,70,2013-03-18 01:08:00
8:28 PM,33.8,33.8,100,29.79,5.0,ENE,11.5,-,N/A,Rain,Light Rain,60,2013-03-18 01:28:00
8:33 PM,33.8,33.8,100,29.79,5.0,ENE,12.7,-,N/A,Rain,Light Rain,70,2013-03-18 01:33:00
8:43 PM,33.8,33.8,100,29.77,5.0,ENE,15.0,-,N/A,,Light Drizzle,70,2013-03-18 01:43:00
8:58 PM,34.2,34.2,100,29.80,6.0,ENE,10.4,-,0.00,,Light Drizzle,70,2013-03-18 01:58:00
9:16 PM,33.8,33.8,100,29.77,7.0,East,11.5,-,N/A,,Overcast,80,2013-03-18 02:16:00
9:19 PM,33.8,33.8,100,29.77,8.0,East,10.4,-,N/A,,Light Drizzle,80,2013-03-18 02:19:00
9:20 PM,33.8,33.8,100,29.77,8.0,East,10.4,-,N/A,,Overcast,80,2013-03-18 02:20:00
9:27 PM,33.8,33.8,100,29.77,8.0,East,10.4,-,N/A,,Light Drizzle,80,2013-03-18 02:27:00
9:29 PM,33.8,33.8,100,29.77,7.0,East,9.2,-,N/A,,Overcast,80,2013-03-18 02:29:00
9:38 PM,33.8,33.8,100,29.76,5.0,East,10.4,-,N/A,,Light Drizzle,90,2013-03-18 02:38:00
9:56 PM,33.8,33.8,100,29.76,9.0,East,9.2,-,N/A,,Overcast,90,2013-03-18 02:56:00
9:58 PM,34.0,34.0,100,29.80,10.0,East,9.2,-,0.01,,Overcast,90,2013-03-18 02:58:00
10:12 PM,33.8,33.8,100,29.77,10.0,East,10.4,-,N/A,,Light Drizzle,90,2013-03-18 03:12:00
10:52 PM,33.8,33.8,100,29.75,8.0,East,13.8,-,N/A,,Light Drizzle,100,2013-03-18 03:52:00
10:58 PM,34.2,34.2,100,29.79,7.0,ESE,12.7,-,0.00,,Light Drizzle,110,2013-03-18 03:58:00
11:20 PM,33.8,33.8,100,29.76,6.0,ESE,8.1,-,N/A,,Overcast,110,2013-03-18 04:20:00
11:50 PM,33.8,33.8,100,29.76,10.0,East,6.9,-,N/A,,Overcast,100,2013-03-18 04:50:00
11:58 PM,34.2,34.2,100,29.79,9.0,East,8.1,-,0.00,,Overcast,100,2013-03-18 04:58:00